Weather History for Torrington, WY

Change the Weather History Date:

Wednesday, October 16, 2013

  Actual Average Record
Temperature  
Mean Temperature 41 °F 48 °F  
Max Temperature 56 °F 63 °F 80 °F (2005)
Min Temperature 26 °F 34 °F 23 °F (2001)
Degree Days  
Heating Degree Days 24 17  
Month to date heating degree days 283 224  
Since 1 July heating degree days 388 418  
Cooling Degree Days 0 0  
Month to date cooling degree days 0 0  
Year to date cooling degree days 893 678  
Moisture  
Dew Point 26 °F    
Average Humidity 58    
Maximum Humidity 92    
Minimum Humidity 24    
Precipitation  
Precipitation 0.00 in 0.05 in 0.11 in (2012)
Month to date precipitation 3.70 0.63  
Year to date precipitation 12.88 12.96  
Sea Level Pressure  
Sea Level Pressure 30.09 in    
Wind  
Wind Speed 6 mph (NW)    
Max Wind Speed 17 mph    
Max Gust Speed 25 mph    
Visibility 10 miles    
Events      
T = Trace of Precipitation, MM = Missing Value Source: NWS Daily Summary

Daily Weather History Graph

Daily Weather History Graph

Search for Another Location

Airport:

Trip Planner

Search our weather history database for the weather conditions in past years. The results will help you decide how hot, cold, wet, or windy it might be!

Date:

Astronomy

Oct. 16, 2013 Rise Set
Actual Time 7:10 AM MDT 6:12 PM MDT
Civil Twilight 6:42 AM MDT 6:41 PM MDT
Nautical Twilight 6:09 AM MDT 7:13 PM MDT
Astronomical Twilight 5:37 AM MDT 7:45 PM MDT
Moon 4:55 PM MDT (10/16) 4:38 AM MDT (10/16)
Length of Visible Light 11h 58m
Length of Day
11h 02m
Waxing Gibbous, 94% of the Moon is Illuminated
Oct 16
Waxing Gibbous
Oct 18
Full
Oct 26
Last Quarter
Nov 3
New
Nov 9
First Quarter

Hourly Weather History & Observations

Time (MDT) Temp. Windchill Dew Point Humidity Pressure Visibility Wind Dir Wind Speed Gust Speed Precip Events Conditions
12:53 AM 33.1 °F 28.7 °F 28.0 °F 82% 30.21 in 10.0 mi WNW 4.6 mph - N/A   Clear
1:53 AM 32.0 °F - 28.9 °F 88% 30.20 in 10.0 mi Calm Calm - N/A   Clear
2:53 AM 33.1 °F 30.0 °F 28.9 °F 85% 30.18 in 10.0 mi West 3.5 mph - N/A   Clear
3:53 AM 27.0 °F - 25.0 °F 92% 30.18 in 10.0 mi Calm Calm - N/A   Clear
4:53 AM 26.1 °F 19.4 °F 24.1 °F 92% 30.17 in 10.0 mi ENE 5.8 mph - N/A   Clear
5:53 AM 26.1 °F 20.5 °F 24.1 °F 92% 30.17 in 10.0 mi SE 4.6 mph - N/A   Clear
6:53 AM 27.0 °F - 25.0 °F 92% 30.16 in 10.0 mi Calm Calm - N/A   Clear
7:53 AM 28.0 °F - 27.0 °F 96% 30.15 in 10.0 mi Calm Calm - N/A   Clear
8:53 AM 30.0 °F - 28.9 °F 96% 30.15 in 9.0 mi Calm Calm - N/A   Clear
9:53 AM 37.0 °F - 30.0 °F 76% 30.13 in 10.0 mi Calm Calm - N/A   Clear
10:53 AM 43.0 °F 38.8 °F 30.0 °F 60% 30.10 in 10.0 mi WNW 6.9 mph - N/A   Clear
11:53 AM 48.9 °F - 28.0 °F 44% 30.07 in 10.0 mi WNW 9.2 mph - N/A   Clear
12:53 PM 50.0 °F - 23.0 °F 35% 30.03 in 10.0 mi WNW 12.7 mph 19.6 mph N/A   Clear
1:53 PM 54.0 °F - 21.9 °F 29% 30.00 in 10.0 mi NW 10.4 mph 20.7 mph N/A   Clear
2:53 PM 55.0 °F - 19.9 °F 25% 29.97 in 10.0 mi NNW 10.4 mph 20.7 mph N/A   Clear
3:53 PM 55.0 °F - 21.9 °F 28% 29.98 in 10.0 mi NW 9.2 mph - N/A   Clear
4:53 PM 54.0 °F - 21.0 °F 28% 29.99 in 10.0 mi NW 12.7 mph - N/A   Clear
5:53 PM 50.0 °F - 24.1 °F 36% 30.00 in 10.0 mi NNW 6.9 mph - N/A   Clear
6:53 PM 46.9 °F - 25.0 °F 42% 30.02 in 10.0 mi NNW 9.2 mph - N/A   Clear
7:53 PM 39.9 °F 34.5 °F 28.0 °F 63% 30.05 in 10.0 mi NNW 8.1 mph - N/A   Clear
8:53 PM 39.0 °F 36.8 °F 28.0 °F 65% 30.06 in 10.0 mi West 3.5 mph - N/A   Clear
9:53 PM 36.0 °F 33.3 °F 28.9 °F 76% 30.06 in 10.0 mi NW 3.5 mph - N/A   Clear
10:53 PM 37.9 °F 33.5 °F 28.0 °F 68% 30.03 in 10.0 mi NW 5.8 mph - N/A   Clear
11:53 PM 32.0 °F 26.4 °F 28.0 °F 85% 30.03 in 10.0 mi West 5.8 mph - N/A   Clear